Location: Newark
(47.3150°N, 5.1150°E)
Time: 06:11:57
(UTC+00:00)

ISS - Pass Details

Date: 30 October 2019
Orbit: 412 x 421 km, 51.6° (Epoch: 22 November)

Event Time Altitude Azimuth Distance (km) Brightness Sun altitude
Exits shadow 04:43:27 45° 265° (W) 584 -3.5 -16.7°
Maximum altitude 04:44:20 74° 338° (NNW) 444 -3.8 -16.6°
Drops below altitude 10° 04:47:43 10° 64° (ENE) 1,510 0.0 -16.0°
Sets 04:49:50 0° 66° (ENE) 2,375 1.2 -15.6°
